[[{"header":{"parameterUnit":"m.s-1","parameterCategory":1,"la1":30.2991,"la2":30.254,"lo1":-89.0895,"lo2":-89.0444,"dy":0.0017,"dx":0.0017,"nx":28,"ny":28,"refTime":"2025-09-11T03:00:00:Z","depth":0,"parameterNumber":2,"parameterNumberName":"U-component_of_WINDS"},"data":[0,0,0,0,0,0,0,0,0,0,0,0,0,0,0,0,0,0,0,0,0,0,0,0,0,0,0,0,0,0,0,0,0,0,0,0,0,0,0,0,0,0,0,0,0,0,0,0,0,0,0,0,0,0,0,0,0,0,1.2627,1.2626,0,1.2587,1.2586,1.2586,1.2533,1.2533,1.2532,1.2531,1.2488,1.2488,1.2487,0,0,0,0,0,0,0,0,0,0,0,0,0,1.2657,1.2657,1.2627,1.2626,1.2626,1.2587,1.2586,1.2586,1.2534,1.2533,1.2532,1.2531,1.2488,1.2488,1.2487,0,0,0,0,0,0,0,0,0,0,0,0,0,1.2633,1.2657,1.2627,1.2595,1.2592,1.2587,1.2586,1.2585,1.2534,1.2533,1.2531,1.253,1.2488,1.2488,1.2487,1.2509,0,0,1.2486,1.2485,0,0,0,0,0,0,0,0,1.2635,1.2632,1.26,1.2597,1.2594,1.2564,1.2581,1.256,1.2534,1.2556,1.2531,1.2529,1.2514,1.2511,1.2507,1.2507,1.2506,1.2485,1.2485,1.2485,1.2485,0,0,0,0,0,0,0,1.2636,1.2634,1.2611,1.26,1.2596,1.2583,1.2578,1.2577,1.2542,1.2554,1.255,1.2546,1.2512,1.2507,1.2505,1.2505,1.2485,1.2485,1.2485,1.2484,1.2522,1.2524,0,0,0,0,0,0,1.2643,1.2635,1.2612,1.261,1.2611,1.2583,1.2578,1.2575,1.2542,1.2536,1.2547,1.2544,1.2509,1.2506,1.2503,1.2527,1.2485,1.2484,1.2484,1.2521,1.2523,1.2524,0,0,0,0,0,0,1.2644,1.2641,1.2614,1.2621,1.2617,1.2584,1.2581,1.2575,1.257,1.2537,1.2531,1.2549,1.2508,1.2504,1.2509,1.2525,1.2484,1.2484,1.252,1.2522,1.2523,1.2575,0,0,0,0,0,0,1.2645,1.2642,1.265,1.2622,1.2617,1.262,1.2582,1.2575,1.2569,1.2564,1.2537,1.2531,1.2506,1.251,1.2508,1.2524,1.2483,1.2518,1.252,1.2523,1.2572,1.2579,1.2585,0,0,0,0,0,1.2646,1.2666,1.2651,1.2648,1.2626,1.2621,1.2618,1.2589,1.2571,1.2579,1.2558,1.2532,1.2524,1.2511,1.2508,1.2524,1.2517,1.252,1.2523,1.2569,1.2578,1.2585,0,0,0,0,0,0,1.2696,1.2662,1.2644,1.2656,1.2642,1.2612,1.2621,1.2599,1.259,1.2585,1.255,1.2544,1.2553,1.2539,1.2525,1.2544,1.2516,1.2519,1.2553,1.256,1.2567,1.2569,1.2483,0,0,0,0,0,1.2709,1.2708,1.2677,1.269,1.2684,1.2654,1.2651,1.263,1.2614,1.2607,1.2587,1.2572,1.2566,1.2562,1.2555,1.257,1.2563,1.258,1.2587,1.2592,1.2594,1.2601,1.2608,1.2534,1.2534,1.2534,0,0,1.2734,1.2715,1.2716,1.27,1.2686,1.2686,1.2649,1.265,1.2649,1.2607,1.261,1.2595,1.2576,1.2586,1.2589,1.2574,1.2614,1.2596,1.26,1.26,1.2605,1.2612,1.2618,1.2536,1.2536,1.2535,0,0,1.278,1.2766,1.2775,1.2763,1.2743,1.2724,1.2726,1.27,1.2689,1.2691,1.266,1.2658,1.2649,1.2636,1.2629,1.2672,1.2647,1.267,1.2703,1.2711,1.2716,1.2721,1.2736,1.2742,1.2673,1.2673,1.2673,0,1.2813,1.2811,1.2782,1.2785,1.2779,1.2742,1.2751,1.2741,1.272,1.2716,1.2701,1.2688,1.2673,1.2679,1.269,1.2685,1.2687,1.2673,1.2718,1.2723,1.2727,1.2741,1.2747,1.2676,1.2676,1.2675,1.2675,0,1.2854,1.2853,1.2863,1.2845,1.284,1.2846,1.2817,1.2816,1.2796,1.2778,1.2781,1.2762,1.275,1.275,1.2731,1.2754,1.2746,1.2725,1.2696,1.2738,1.275,1.2755,1.268,1.2679,1.2678,1.2678,0,0,1.2928,1.2895,1.2899,1.289,1.2867,1.2866,1.2871,1.286,1.2859,1.2847,1.2849,1.2843,1.2823,1.2815,1.2794,1.2801,1.2836,1.2778,1.2777,1.2789,1.286,1.2876,1.2882,1.282,1.2821,1.2822,1.2862,0,1.2969,1.2975,1.295,1.2962,1.2961,1.2927,1.2931,1.2918,1.2901,1.2898,1.2879,1.2875,1.285,1.2845,1.285,1.283,1.2849,1.2827,1.2821,1.2822,1.2826,1.2889,1.2905,1.2943,1.2866,1.2867,1.2868,0,1.3017,1.3008,1.3021,1.2998,1.2996,1.3,1.2989,1.2986,1.297,1.2958,1.2949,1.2925,1.2928,1.2902,1.2905,1.2891,1.2887,1.2877,1.2878,1.2875,1.2846,1.2887,1.2955,1.2961,1.2875,1.2875,1.2874,0,1.3069,1.306,1.3067,1.3061,1.3034,1.3038,1.3027,1.3009,1.3005,1.2995,1.2992,1.2982,1.2977,1.297,1.2944,1.2927,1.295,1.2922,1.2939,1.294,1.2944,1.2944,1.3012,1.2944,1.2944,1.2944,1.2944,0,1.3117,1.3126,1.309,1.3094,1.3103,1.3074,1.3084,1.307,1.3055,1.3055,1.3026,1.3027,1.2993,1.299,1.297,1.2976,1.2974,1.2963,1.2958,1.2965,1.2967,1.2961,1.2958,1.2945,1.2945,1.2945,1.2944,0,1.3176,1.3153,1.3157,1.3132,1.3126,1.3134,1.3113,1.3115,1.3098,1.3099,1.3097,1.3069,1.3065,1.3039,1.3028,1.3014,1.3027,1.3016,1.3032,1.3028,1.3047,1.3046,1.3113,1.312,1.3049,1.305,1.305,0,1.3207,1.3214,1.319,1.3188,1.3179,1.3177,1.3172,1.3145,1.3141,1.3124,1.3129,1.3122,1.3115,1.3109,1.3087,1.3079,1.3067,1.3092,1.3066,1.3073,1.3067,1.3066,1.3067,1.3097,1.3098,1.3098,1.3099,0,1.3265,1.3254,1.3249,1.324,1.3236,1.3228,1.3218,1.3218,1.3187,1.3185,1.318,1.3175,1.3165,1.3158,1.3146,1.3134,1.3111,1.3108,1.3111,1.3118,1.3127,1.3122,1.3046,1.3106,1.3105,1.3105,1.3104,1.3104,1.3311,1.3315,1.3299,1.3295,1.3285,1.3276,1.3277,1.3261,1.3257,1.3246,1.323,1.3228,1.3212,1.3194,1.3184,1.3182,1.3169,1.3174,1.3175,1.3176,1.318,1.3129,1.318,1.318,1.3179,1.3179,1.3179,0,1.3366,1.3355,1.3352,1.3339,1.3336,1.3316,1.3304,1.3302,1.3301,1.3289,1.3283,1.3278,1.3272,1.3251,1.3242,1.3244,1.3233,1.3243,1.3242,1.3239,1.3193,1.319,1.3252,1.3252,1.3252,1.3252,1.3252,1.3252,1.3395,1.3401,1.3388,1.3389,1.3377,1.3375,1.337,1.3362,1.3352,1.3348,1.3343,1.333,1.3314,1.3305,1.3298,1.3292,1.329,1.3303,1.3293,1.325,1.3243,1.3236,1.3233,1.3303,1.3303,1.3339,1.334,1.334]},{"header":{"parameterUnit":"m.s-1","parameterCategory":1,"la1":30.2991,"la2":30.254,"lo1":-89.0895,"lo2":-89.0444,"dy":0.0017,"dx":0.0017,"nx":28,"ny":28,"refTime":"2025-09-11T03:00:00:Z","depth":0,"parameterNumber":3,"parameterNumberName":"V-component_of_WINDS"},"data":[0,0,0,0,0,0,0,0,0,0,0,0,0,0,0,0,0,0,0,0,0,0,0,0,0,0,0,0,0,0,0,0,0,0,0,0,0,0,0,0,0,0,0,0,0,0,0,0,0,0,0,0,0,0,0,0,0,0,-2.8307,-2.8309,0,-2.8416,-2.8417,-2.8419,-2.841,-2.8408,-2.8407,-2.8405,-2.8514,-2.8518,-2.8522,0,0,0,0,0,0,0,0,0,0,0,0,0,-2.809,-2.8094,-2.8307,-2.8309,-2.831,-2.8416,-2.8417,-2.8419,-2.841,-2.8408,-2.8406,-2.8405,-2.8512,-2.8517,-2.8523,0,0,0,0,0,0,0,0,0,0,0,0,0,-2.819,-2.8095,-2.8307,-2.8319,-2.8321,-2.8416,-2.8417,-2.8419,-2.8411,-2.8408,-2.8406,-2.8404,-2.851,-2.8517,-2.8523,-2.8613,0,0,-2.8543,-2.8546,0,0,0,0,0,0,0,0,-2.8184,-2.8198,-2.8316,-2.8318,-2.8321,-2.8397,-2.838,-2.8484,-2.8411,-2.8376,-2.8405,-2.8402,-2.8477,-2.8486,-2.8511,-2.8618,-2.8623,-2.8544,-2.8548,-2.8551,-2.8553,0,0,0,0,0,0,0,-2.8177,-2.8193,-2.835,-2.8317,-2.832,-2.8318,-2.8329,-2.84,-2.8439,-2.8379,-2.8379,-2.8392,-2.8477,-2.8505,-2.8514,-2.8624,-2.8544,-2.855,-2.8554,-2.8556,-2.881,-2.8813,0,0,0,0,0,0,-2.8168,-2.8188,-2.8347,-2.8353,-2.8245,-2.8324,-2.8336,-2.8375,-2.8438,-2.8445,-2.8394,-2.8391,-2.8495,-2.8506,-2.8518,-2.8627,-2.8551,-2.8557,-2.8561,-2.8807,-2.8811,-2.8814,0,0,0,0,0,0,-2.8164,-2.8183,-2.8342,-2.8271,-2.8291,-2.833,-2.8373,-2.8378,-2.8406,-2.8449,-2.8456,-2.8415,-2.8494,-2.8508,-2.859,-2.8631,-2.856,-2.8566,-2.8804,-2.8808,-2.8812,-2.8846,0,0,0,0,0,0,-2.8157,-2.8181,-2.8216,-2.8271,-2.8295,-2.8413,-2.8376,-2.8382,-2.8418,-2.8415,-2.8471,-2.8478,-2.8493,-2.858,-2.8596,-2.8638,-2.8571,-2.88,-2.8806,-2.8811,-2.8841,-2.8851,-2.8859,0,0,0,0,0,-2.815,-2.822,-2.8218,-2.8237,-2.8339,-2.8416,-2.8429,-2.8445,-2.8421,-2.8456,-2.8484,-2.8476,-2.8624,-2.8588,-2.8607,-2.8651,-2.8798,-2.8804,-2.881,-2.8837,-2.8849,-2.8859,0,0,0,0,0,0,-2.8167,-2.8228,-2.8225,-2.8316,-2.8361,-2.8414,-2.8459,-2.8457,-2.8509,-2.8504,-2.8522,-2.8534,-2.8616,-2.8642,-2.8601,-2.8742,-2.8707,-2.8718,-2.8722,-2.8733,-2.8742,-2.8733,-2.8577,0,0,0,0,0,-2.8182,-2.8239,-2.8289,-2.8364,-2.8387,-2.8419,-2.8453,-2.8462,-2.8509,-2.8527,-2.8561,-2.8606,-2.8663,-2.8699,-2.8754,-2.8845,-2.8857,-2.8885,-2.8894,-2.8901,-2.8909,-2.896,-2.8973,-2.8834,-2.8834,-2.8834,0,0,-2.8212,-2.8252,-2.8287,-2.8369,-2.8405,-2.8463,-2.8435,-2.8498,-2.8542,-2.8537,-2.8616,-2.8642,-2.8693,-2.878,-2.882,-2.8804,-2.8951,-2.8909,-2.8914,-2.8919,-2.8968,-2.8981,-2.8993,-2.8838,-2.8838,-2.8837,0,0,-2.8297,-2.8334,-2.84,-2.8437,-2.8492,-2.8514,-2.853,-2.8584,-2.8601,-2.8681,-2.8679,-2.8731,-2.8828,-2.8864,-2.8896,-2.8997,-2.8991,-2.9014,-2.9059,-2.9108,-2.9119,-2.9129,-2.9165,-2.9178,-2.9022,-2.9022,-2.9022,0,-2.8327,-2.8417,-2.8435,-2.8499,-2.8535,-2.8535,-2.8602,-2.8637,-2.8706,-2.8731,-2.8712,-2.8835,-2.8869,-2.8965,-2.899,-2.9015,-2.9034,-2.9007,-2.9116,-2.9126,-2.9136,-2.917,-2.9184,-2.9024,-2.9024,-2.9024,-2.9024,0,-2.8451,-2.8514,-2.8561,-2.863,-2.8671,-2.8737,-2.8764,-2.8803,-2.8809,-2.8832,-2.8914,-2.8955,-2.9018,-2.9042,-2.9048,-2.9139,-2.9127,-2.9113,-2.9079,-2.9151,-2.9184,-2.9197,-2.9028,-2.9027,-2.9026,-2.9026,0,0,-2.8549,-2.8628,-2.8645,-2.8677,-2.8738,-2.8786,-2.8852,-2.8915,-2.8948,-2.8997,-2.9052,-2.9135,-2.9122,-2.9157,-2.9168,-2.9211,-2.9288,-2.9191,-2.9192,-2.9207,-2.9391,-2.9402,-2.9417,-2.9285,-2.9288,-2.929,-2.9387,0,-2.8641,-2.8758,-2.8777,-2.888,-2.8937,-2.8938,-2.8996,-2.9039,-2.9063,-2.9114,-2.914,-2.9198,-2.9177,-2.9198,-2.9242,-2.927,-2.9325,-2.9263,-2.9336,-2.9339,-2.9323,-2.9434,-2.9445,-2.9535,-2.94,-2.9402,-2.9404,0,-2.8763,-2.8816,-2.8925,-2.8979,-2.9004,-2.9055,-2.9115,-2.9165,-2.9214,-2.9228,-2.9269,-2.9274,-2.9342,-2.9305,-2.9399,-2.9356,-2.9387,-2.9406,-2.941,-2.9417,-2.9375,-2.9444,-2.9564,-2.9577,-2.9424,-2.9422,-2.9421,0,-2.8823,-2.8922,-2.9,-2.9027,-2.9092,-2.9128,-2.9157,-2.9204,-2.9241,-2.9293,-2.9317,-2.9376,-2.9408,-2.9453,-2.9474,-2.9445,-2.9566,-2.9531,-2.9579,-2.9578,-2.9604,-2.9602,-2.973,-2.9624,-2.9624,-2.9624,-2.9624,0,-2.8923,-2.899,-2.9028,-2.9076,-2.9151,-2.9172,-2.9245,-2.9272,-2.9315,-2.9368,-2.9372,-2.9421,-2.9446,-2.9499,-2.9516,-2.9591,-2.9605,-2.9618,-2.9621,-2.9617,-2.9616,-2.9638,-2.9632,-2.9628,-2.9627,-2.9626,-2.9625,0,-2.9003,-2.9031,-2.9117,-2.9172,-2.9188,-2.924,-2.9288,-2.9334,-2.9358,-2.9425,-2.9442,-2.9479,-2.9542,-2.9567,-2.9644,-2.9655,-2.9741,-2.974,-2.9725,-2.9726,-2.9772,-2.9767,-2.9919,-2.994,-2.982,-2.9821,-2.9822,0,-2.9064,-2.9116,-2.9178,-2.9214,-2.9244,-2.9303,-2.9341,-2.9363,-2.9403,-2.9464,-2.9503,-2.9566,-2.9618,-2.9718,-2.9751,-2.981,-2.981,-2.9859,-2.9819,-2.9813,-2.9811,-2.9807,-2.9813,-2.9866,-2.9867,-2.9868,-2.9869,0,-2.9171,-2.9183,-2.9238,-2.9299,-2.9345,-2.9393,-2.9441,-2.947,-2.95,-2.9544,-2.9609,-2.9649,-2.9728,-2.9791,-2.9852,-2.9881,-2.988,-2.9882,-2.9896,-2.9892,-2.9881,-2.9888,-2.9745,-2.9878,-2.9877,-2.9876,-2.9876,-2.9876,-2.9243,-2.929,-2.934,-2.9402,-2.9441,-2.9485,-2.9532,-2.9562,-2.9617,-2.9684,-2.9694,-2.9763,-2.9812,-2.9894,-2.9925,-2.998,-2.9967,-2.9987,-2.9993,-2.9997,-3.0,-2.9873,-2.9991,-2.9991,-2.999,-2.999,-2.999,0,-2.935,-2.9383,-2.944,-2.9507,-2.9555,-2.9552,-2.9604,-2.9645,-2.9707,-2.9752,-2.9804,-2.9879,-2.994,-2.9978,-3.004,-3.0076,-3.0077,-3.0091,-3.0089,-3.0095,-3.0008,-2.999,-3.0089,-3.0089,-3.0089,-3.0089,-3.0089,-3.0089,-2.9411,-2.9489,-2.9507,-2.9604,-2.9637,-2.9706,-2.9736,-2.9777,-2.9814,-2.9898,-2.9949,-2.9974,-3.0018,-3.0082,-3.0138,-3.0148,-3.017,-3.0185,-3.0194,-3.0112,-3.0101,-3.0092,-3.0074,-3.019,-3.019,-3.0277,-3.0277,-3.0278]}]]